Pasco, WA

3:42 PM PST on February 09, 2016 (GMT -0800)
Tri-Cities

Weather History for KPSC - December, 2011

Change the Weather History Date:

Monday, December 5, 2011

  Actual Average Record
Temperature  
Mean Temperature 30 °F 35 °F  
Max Temperature 42 °F 42 °F 56 °F (1991)
Min Temperature 18 °F 28 °F 3 °F (2013)
Degree Days  
Heating Degree Days 35 30  
Month to date heating degree days 163 148  
Since 1 July heating degree days 1325 1377  
Cooling Degree Days 0 0  
Month to date cooling degree days 0 0  
Year to date cooling degree days 632 710  
Moisture  
Dew Point 24 °F    
Average Humidity 78    
Maximum Humidity 100    
Minimum Humidity 55    
Precipitation  
Precipitation 0.00 in 0.03 in 0.44 in (1978)
Month to date precipitation 0.00 0.15  
Year to date precipitation 6.13 7.77  
Snow  
Snow 0.00 in - - ()
Snow Depth 0.00 in    
Sea Level Pressure  
Sea Level Pressure 30.53 in    
Wind  
Wind Speed 2 mph (NW)    
Max Wind Speed 7 mph    
Max Gust Speed 7 mph    
Visibility 8 miles    
Events      
T = Trace of Precipitation, MM = Missing Value Source: NWS Daily Summary

Daily Weather History Graph

Daily Weather History Graph

Search for Another Location

Airport or City:

Trip Planner

Search our weather history database for the weather conditions in past years. The results will help you decide how hot, cold, wet, or windy it might be!

Date:

Astronomy

Dec. 05, 2011 Rise Set
Actual Time 7:23 AM PST 4:10 PM PST
Civil Twilight 6:48 AM PST 4:45 PM PST
Nautical Twilight 6:11 AM PST 5:22 PM PST
Astronomical Twilight 5:34 AM PST 5:59 PM PST
Moon 1:20 PM PST (12/5) 2:38 AM PST (12/5)
Length of Visible Light 9h 56m
Length of Day
8h 47m
Waxing Gibbous, 80% of the Moon is Illuminated
Dec 5
Waxing Gibbous
Dec 10
Full
Dec 17
Last Quarter
Dec 24
New
Dec 31
First Quarter

Hourly Weather History & Observations

Time (PST) Temp. Windchill Dew Point Humidity Pressure Visibility Wind Dir Wind Speed Gust Speed Precip Events Conditions
12:53 AM 24.1 °F 18.2 °F 21.0 °F 88% 30.60 in 10.0 mi ENE 4.6 mph - N/A   Unknown
2:53 AM 21.9 °F - 21.0 °F 96% 30.59 in 7.0 mi Calm Calm - N/A   Unknown
3:53 AM 21.9 °F - 19.9 °F 92% 30.58 in 7.0 mi Calm Calm - N/A   Clear
4:53 AM 21.9 °F 17.2 °F 19.9 °F 92% 30.57 in 7.0 mi Variable 3.5 mph - N/A   Clear
5:53 AM 21.9 °F - 19.9 °F 92% 30.57 in 6.0 mi Calm Calm - N/A   Clear
6:53 AM 19.0 °F - 17.1 °F 92% 30.58 in 6.0 mi Calm Calm - N/A   Clear
8:53 AM 26.1 °F - 24.1 °F 92% 30.57 in 7.0 mi Calm Calm - N/A   Clear
9:53 AM 30.9 °F - 28.0 °F 89% 30.58 in 6.0 mi Calm Calm - N/A   Clear
10:53 AM 35.1 °F - 28.0 °F 76% 30.56 in 6.0 mi Calm Calm - N/A   Haze
11:53 AM 37.0 °F 34.5 °F 28.0 °F 70% 30.54 in 10.0 mi NW 3.5 mph - N/A   Clear
12:53 PM 37.9 °F - 28.0 °F 68% 30.50 in 10.0 mi Calm Calm - N/A   Clear
1:53 PM 41.0 °F 38.0 °F 28.0 °F 60% 30.49 in 10.0 mi NW 4.6 mph - N/A   Clear
3:53 PM 39.9 °F 37.8 °F 28.0 °F 63% 30.47 in 10.0 mi WNW 3.5 mph - N/A   Clear
4:53 PM 32.0 °F 26.4 °F 25.0 °F 75% 30.48 in 10.0 mi NW 5.8 mph - N/A   Clear
5:53 PM 30.9 °F 26.2 °F 26.1 °F 82% 30.48 in 10.0 mi NW 4.6 mph - N/A   Clear
6:53 PM 28.0 °F 22.8 °F 24.1 °F 85% 30.47 in 10.0 mi NW 4.6 mph - N/A   Clear
7:53 PM 27.0 °F 21.6 °F 24.1 °F 89% 30.48 in 10.0 mi NW 4.6 mph - N/A   Clear
8:53 PM 25.0 °F - 21.9 °F 88% 30.47 in 8.0 mi Calm Calm - N/A   Unknown
9:53 PM 23.0 °F 17.0 °F 21.0 °F 92% 30.47 in 8.0 mi NNW 4.6 mph - N/A   Unknown
10:53 PM 23.0 °F - 21.0 °F 92% 30.47 in 8.0 mi Calm Calm - N/A   Unknown